M I D A S
Marine Information and Data Acquisition System
Tripno 1660 of the Zeeleeuw from 2009-03-19 07:30:53 to 2009-03-19 13:03:15
Back to CruiseResearch ActivitiesStationsMapUnderway DataData graphs

EquipmentUnitsComments
TimeDGPSUTC
LatitudeDGPSDM.mWGS84
LongitudeDGPSDM.mWGS84
SpeedMeteo Stationm/sRelative wind speed
DirectionMeteo StationdegRelative wind direction
TemperatureMeteo Stationdeg CelciusAir temperature
PressureMeteo StationPaAtmospheric pressure
HumidityMeteo Station%Relative humidity
Missing or incorrect values are displayed as -999
Metereological data collected by the RV Zeeleeuw from 2009-03-19 07:24:05 to 2009-03-19 13:13:15
                                                                                    Next 1000 lines
Time Latitude Longitude Speed Direction Temperature Pressure Humidity
2009-03-19 07:24:14 51°13.662 2°55.955 2.7 270 7 102660 86
2009-03-19 07:24:19 51°13.663 2°55.952 2.3 288 7 102660 86
2009-03-19 07:24:24 51°13.663 2°55.949 2.8 264 7 102660 86
2009-03-19 07:24:29 51°13.664 2°55.946 3.3 286 7 102660 86
2009-03-19 07:24:34 51°13.665 2°55.943 3.6 32 7 102660 86
2009-03-19 07:24:40 51°13.666 2°55.938 3.2 75 7 102660 86
2009-03-19 07:24:46 51°13.668 2°55.932 4.3 34 7 102660 86
2009-03-19 07:24:52 51°13.669 2°55.927 3.6 285 7 102660 86
2009-03-19 07:24:57 51°13.671 2°55.922 3.7 36 7 102660 86
2009-03-19 07:25:03 51°13.672 2°55.915 3 29 7 102660 85
2009-03-19 07:25:08 51°13.674 2°55.91 4.6 32 7 102660 85
2009-03-19 07:25:13 51°13.675 2°55.904 3 83 7 102660 86
2009-03-19 07:25:18 51°13.676 2°55.898 2.9 265 7 102660 86
2009-03-19 07:25:23 51°13.678 2°55.892 3 79 7 102660 86
2009-03-19 07:25:28 51°13.679 2°55.886 3.8 32 7 102660 86
2009-03-19 07:25:33 51°13.681 2°55.88 3.1 81 7 102660 86
2009-03-19 07:25:37 51°13.682 2°55.875 2.2 33 7 102660 86
2009-03-19 07:25:43 51°13.683 2°55.868 3.3 289 7 102660 84
2009-03-19 07:25:48 51°13.685 2°55.861 2.5 267 7 102660 84
2009-03-19 07:25:53 51°13.686 2°55.854 3.7 84 7 102660 86
2009-03-19 07:25:57 51°13.687 2°55.849 4.9 34 7 102660 86
2009-03-19 07:26:03 51°13.689 2°55.84 3.4 282 7 102660 86
2009-03-19 07:26:08 51°13.69 2°55.833 3.4 32 7 102660 86
2009-03-19 07:26:13 51°13.692 2°55.826 3.6 79 7 102660 86
2009-03-19 07:26:17 51°13.693 2°55.821 4 33 7 102660 86
2009-03-19 07:26:22 51°13.694 2°55.814 4.1 279 7 102660 86
2009-03-19 07:26:28 51°13.695 2°55.806 4.9 38 7 102660 86
2009-03-19 07:26:33 51°13.696 2°55.8 2.3 81 7 102660 86
2009-03-19 07:26:38 51°13.698 2°55.794 2.1 261 7 102660 86
2009-03-19 07:26:42 51°13.698 2°55.79 3.1 69 7 102660 85
2009-03-19 07:26:47 51°13.699 2°55.785 3 32 7 102660 85
2009-03-19 07:26:53 51°13.7 2°55.779 3.8 76 7 102660 84
2009-03-19 07:26:57 51°13.701 2°55.775 2 258 7 102660 84
2009-03-19 07:27:02 51°13.701 2°55.771 1.8 262 7 102660 86
2009-03-19 07:27:07 51°13.702 2°55.767 2.8 268 7 102660 86
2009-03-19 07:27:13 51°13.702 2°55.763 3.3 281 7 102660 85
2009-03-19 07:27:18 51°13.702 2°55.76 2.6 264 7 102660 85
2009-03-19 07:27:22 51°13.703 2°55.758 3.5 286 7 102660 86
2009-03-19 07:27:27 51°13.703 2°55.756 4.2 245 7 102660 86
2009-03-19 07:27:32 51°13.703 2°55.755 2.4 280 7 102660 86
2009-03-19 07:27:37 51°13.703 2°55.753 2.9 258 7 102660 86
2009-03-19 07:27:42 51°13.704 2°55.753 2.6 282 7 102660 86
2009-03-19 07:27:47 51°13.704 2°55.752 2.6 254 7 102660 86
2009-03-19 07:27:52 51°13.704 2°55.752 2.9 284 7 102660 86
2009-03-19 07:27:57 51°13.704 2°55.753 4 259 7 102660 86
2009-03-19 07:28:01 51°13.704 2°55.754 5 282 7 102660 86
2009-03-19 07:28:06 51°13.705 2°55.754 6.2 235 7 102660 86
2009-03-19 07:28:11 51°13.706 2°55.755 6 286 7 102660 86
2009-03-19 07:28:16 51°13.706 2°55.757 5.2 31 7 102660 86
2009-03-19 07:28:21 51°13.707 2°55.758 5.3 285 7 102660 87
2009-03-19 07:28:26 51°13.708 2°55.759 4.5 36 7 102660 87
2009-03-19 07:28:30 51°13.709 2°55.761 3.4 281 7.1 102660 87
2009-03-19 07:28:35 51°13.71 2°55.762 3.6 30 7.1 102660 87
2009-03-19 07:28:40 51°13.711 2°55.763 4.2 284 7.1 102660 87
2009-03-19 07:28:45 51°13.712 2°55.763 4.7 320 7.1 102660 87
2009-03-19 07:28:50 51°13.712 2°55.763 4.9 280 7.1 102660 87
2009-03-19 07:28:55 51°13.711 2°55.763 3.5 323 7.1 102660 87
2009-03-19 07:29:00 51°13.71 2°55.762 3.6 25 7.1 102660 86
2009-03-19 07:29:05 51°13.709 2°55.762 2.2 326 7.1 102660 86
2009-03-19 07:29:09 51°13.708 2°55.762 2 287 7.1 102650 87
2009-03-19 07:29:14 51°13.707 2°55.761 1.6 321 7.1 102650 87
2009-03-19 07:29:19 51°13.706 2°55.761 2.3 284 7.1 102660 86
2009-03-19 07:29:24 51°13.706 2°55.76 2.1 323 7.1 102660 86
2009-03-19 07:29:29 51°13.705 2°55.76 2.1 280 7.1 102660 86
2009-03-19 07:29:34 51°13.704 2°55.76 1.8 328 7.1 102660 86
2009-03-19 07:29:39 51°13.704 2°55.76 0.8 281 7.1 102660 87
2009-03-19 07:29:44 51°13.704 2°55.759 1 328 7.1 102660 87
2009-03-19 07:29:49 51°13.704 2°55.759 1.6 356 7.1 102660 87
2009-03-19 07:29:54 51°13.704 2°55.759 1.2 234 7.1 102660 87
2009-03-19 07:29:58 51°13.705 2°55.759 3.4 282 7.1 102660 87
2009-03-19 07:30:04 51°13.706 2°55.758 4 341 7.1 102660 87
2009-03-19 07:30:09 51°13.707 2°55.758 4.9 352 7.1 102660 87
2009-03-19 07:30:14 51°13.708 2°55.757 4.3 346 7.1 102660 87
2009-03-19 07:30:19 51°13.709 2°55.756 5.1 286 7.1 102660 87
2009-03-19 07:30:25 51°13.711 2°55.755 5.1 340 7.1 102660 87
2009-03-19 07:30:29 51°13.713 2°55.753 5.3 351 7.1 102660 87
2009-03-19 07:30:34 51°13.715 2°55.751 3.9 347 7.1 102660 87
2009-03-19 07:30:39 51°13.717 2°55.748 2.9 283 7.1 102660 86
2009-03-19 07:30:45 51°13.721 2°55.745 3.7 339 7.1 102660 86
2009-03-19 07:30:49 51°13.723 2°55.743 3.5 285 7.1 102660 86
2009-03-19 07:30:54 51°13.726 2°55.739 3.6 342 7.1 102660 86
2009-03-19 07:30:59 51°13.729 2°55.735 4.1 343 7.1 102660 85
2009-03-19 07:31:04 51°13.732 2°55.731 5.2 349 7.1 102660 85
2009-03-19 07:31:09 51°13.735 2°55.727 5.8 282 7.1 102660 86
2009-03-19 07:31:14 51°13.739 2°55.722 5.7 348 7.1 102660 86
2009-03-19 07:31:19 51°13.743 2°55.718 6.3 347 7.1 102660 86
2009-03-19 07:31:24 51°13.746 2°55.713 5.2 347 7.1 102660 86
2009-03-19 07:31:29 51°13.75 2°55.708 5.3 285 7.1 102660 85
2009-03-19 07:31:33 51°13.754 2°55.704 4.6 339 7.1 102660 85
2009-03-19 07:31:39 51°13.759 2°55.699 5.2 281 7.1 102650 85
2009-03-19 07:31:44 51°13.763 2°55.694 5.2 345 7.1 102650 85
2009-03-19 07:31:49 51°13.768 2°55.689 5 281 7 102660 86
2009-03-19 07:31:54 51°13.773 2°55.685 5.9 337 7 102660 86
2009-03-19 07:31:58 51°13.777 2°55.681 4.5 349 7 102660 86
2009-03-19 07:32:04 51°13.783 2°55.676 4.9 351 7 102660 86
2009-03-19 07:32:09 51°13.788 2°55.671 4.3 354 7 102660 86
2009-03-19 07:32:14 51°13.793 2°55.667 5.4 346 7 102660 86
2009-03-19 07:32:19 51°13.798 2°55.662 6 281 7 102660 86
2009-03-19 07:32:24 51°13.804 2°55.658 6.3 343 7 102660 86
2009-03-19 07:32:29 51°13.809 2°55.653 6.7 278 7 102660 86
2009-03-19 07:32:33 51°13.813 2°55.649 5.6 343 7 102660 86
2009-03-19 07:32:39 51°13.82 2°55.644 7 280 7 102660 86
2009-03-19 07:32:44 51°13.826 2°55.641 7.2 342 7 102660 86
2009-03-19 07:32:49 51°13.831 2°55.637 5.5 280 7 102660 86
2009-03-19 07:32:53 51°13.836 2°55.635 5.6 341 7 102660 86
2009-03-19 07:32:59 51°13.842 2°55.632 6.2 338 7 102650 86
2009-03-19 07:33:04 51°13.848 2°55.63 6 336 7 102650 86
2009-03-19 07:33:09 51°13.853 2°55.629 5.4 284 7 102660 86
2009-03-19 07:33:14 51°13.858 2°55.628 6.3 335 7 102660 86
2009-03-19 07:33:19 51°13.863 2°55.628 6.8 280 7 102660 87
2009-03-19 07:33:24 51°13.867 2°55.628 6.9 330 7 102660 87
2009-03-19 07:33:29 51°13.872 2°55.628 6.2 286 7 102660 86
2009-03-19 07:33:34 51°13.876 2°55.629 5.8 332 7 102660 86
2009-03-19 07:33:39 51°13.881 2°55.63 6.1 285 7 102660 86
2009-03-19 07:33:44 51°13.885 2°55.631 5.4 332 7 102660 86
2009-03-19 07:33:49 51°13.889 2°55.632 5.2 280 6.9 102660 87
2009-03-19 07:33:54 51°13.893 2°55.633 4.2 340 6.9 102660 87
2009-03-19 07:33:59 51°13.897 2°55.634 3.9 338 6.9 102660 87
2009-03-19 07:34:04 51°13.901 2°55.635 5.1 332 6.9 102660 87
2009-03-19 07:34:09 51°13.904 2°55.636 6.4 281 7 102660 86
2009-03-19 07:34:13 51°13.907 2°55.636 6 337 7 102660 86
2009-03-19 07:34:19 51°13.911 2°55.637 4.9 282 6.9 102660 86
2009-03-19 07:34:24 51°13.915 2°55.637 4.2 343 6.9 102660 86
2009-03-19 07:34:29 51°13.918 2°55.637 4.5 286 6.9 102660 87
2009-03-19 07:34:34 51°13.921 2°55.636 5.9 342 6.9 102660 87
2009-03-19 07:34:39 51°13.924 2°55.636 5.8 281 6.9 102660 87
2009-03-19 07:34:44 51°13.928 2°55.635 4.9 341 6.9 102660 87
2009-03-19 07:34:49 51°13.93 2°55.634 5.5 285 7 102660 86
2009-03-19 07:34:54 51°13.933 2°55.633 4 347 7 102660 86
2009-03-19 07:34:59 51°13.936 2°55.632 5.1 351 6.9 102660 86
2009-03-19 07:35:04 51°13.938 2°55.631 5.5 350 6.9 102660 86
2009-03-19 07:35:09 51°13.941 2°55.63 5 280 6.9 102660 86
2009-03-19 07:35:13 51°13.942 2°55.629 4.7 351 6.9 102660 86
2009-03-19 07:35:19 51°13.945 2°55.627 4.4 282 6.9 102660 86
2009-03-19 07:35:24 51°13.947 2°55.626 4.5 355 6.9 102660 86
2009-03-19 07:35:29 51°13.949 2°55.625 3.9 280 6.9 102660 87
2009-03-19 07:35:34 51°13.95 2°55.623 4.8 352 6.9 102660 87
2009-03-19 07:35:39 51°13.952 2°55.622 3.9 352 6.9 102660 86
2009-03-19 07:35:44 51°13.954 2°55.621 4.8 351 6.9 102660 86
2009-03-19 07:35:49 51°13.956 2°55.619 4.2 354 6.9 102660 86
2009-03-19 07:35:54 51°13.957 2°55.617 3.9 349 6.9 102660 86
2009-03-19 07:35:59 51°13.959 2°55.616 3.7 348 6.9 102660 87
2009-03-19 07:36:04 51°13.962 2°55.614 6.2 357 6.9 102660 87
2009-03-19 07:36:09 51°13.964 2°55.613 5.8 355 6.9 102660 86
2009-03-19 07:36:14 51°13.966 2°55.61 5.3 357 6.9 102660 86
2009-03-19 07:36:18 51°13.968 2°55.608 5.2 351 6.9 102660 87
2009-03-19 07:36:24 51°13.973 2°55.604 4 347 6.9 102660 87
2009-03-19 07:36:29 51°13.977 2°55.6 5 347 6.9 102660 87
2009-03-19 07:36:34 51°13.982 2°55.595 6.1 349 6.9 102660 87
2009-03-19 07:36:39 51°13.988 2°55.59 5.9 350 6.9 102660 86
2009-03-19 07:36:44 51°13.995 2°55.584 4.6 347 6.9 102660 86
2009-03-19 07:36:49 51°14.003 2°55.577 5.6 279 6.9 102660 87
2009-03-19 07:36:54 51°14.01 2°55.568 6.1 343 6.9 102660 87
2009-03-19 07:36:58 51°14.017 2°55.561 6.4 281 6.9 102660 87
2009-03-19 07:37:04 51°14.026 2°55.549 7 343 6.9 102660 87
2009-03-19 07:37:09 51°14.035 2°55.539 5.4 348 6.9 102660 87
2009-03-19 07:37:14 51°14.044 2°55.529 7.9 349 6.9 102660 87
2009-03-19 07:37:19 51°14.053 2°55.518 6.5 286 6.9 102660 87
2009-03-19 07:37:24 51°14.063 2°55.508 8.1 339 6.9 102660 87
2009-03-19 07:37:29 51°14.073 2°55.497 8.3 280 6.9 102660 87
2009-03-19 07:37:34 51°14.083 2°55.486 7.7 346 6.9 102660 87
2009-03-19 07:37:39 51°14.094 2°55.475 6.7 351 6.9 102660 87
2009-03-19 07:37:45 51°14.106 2°55.462 8.2 347 6.9 102660 87
2009-03-19 07:37:50 51°14.117 2°55.45 7.3 347 6.9 102660 87
2009-03-19 07:37:55 51°14.127 2°55.437 6.9 343 6.9 102660 87
2009-03-19 07:38:00 51°14.138 2°55.425 8.2 344 6.9 102660 87
2009-03-19 07:38:05 51°14.149 2°55.413 7.6 343 6.9 102660 87
2009-03-19 07:38:10 51°14.159 2°55.4 8.3 284 6.9 102660 87
2009-03-19 07:38:15 51°14.17 2°55.387 6.2 345 6.9 102660 87
2009-03-19 07:38:19 51°14.179 2°55.376 7.2 281 6.9 102660 87
2009-03-19 07:38:25 51°14.191 2°55.36 7.1 345 6.9 102660 87
2009-03-19 07:38:29 51°14.2 2°55.349 8 280 6.9 102660 87
2009-03-19 07:38:35 51°14.212 2°55.332 8.8 350 6.9 102660 87
2009-03-19 07:38:40 51°14.223 2°55.317 6.8 280 6.9 102660 87
2009-03-19 07:38:45 51°14.233 2°55.302 7.1 351 6.9 102660 87
2009-03-19 07:38:50 51°14.244 2°55.286 7.3 281 6.9 102660 87
2009-03-19 07:38:55 51°14.253 2°55.27 7.2 351 6.9 102660 87
2009-03-19 07:39:00 51°14.263 2°55.253 8.2 351 6.8 102660 87
2009-03-19 07:39:06 51°14.275 2°55.232 7.1 351 6.8 102660 87
2009-03-19 07:39:10 51°14.282 2°55.218 6.9 351 6.8 102660 87
2009-03-19 07:39:15 51°14.291 2°55.199 8.3 353 6.8 102660 87
2009-03-19 07:39:20 51°14.3 2°55.181 7.1 347 6.8 102650 87
2009-03-19 07:39:25 51°14.309 2°55.161 7.6 341 6.8 102650 87
2009-03-19 07:39:30 51°14.317 2°55.142 6.9 285 6.9 102650 87
2009-03-19 07:39:35 51°14.326 2°55.122 8.7 351 6.9 102650 87
2009-03-19 07:39:39 51°14.333 2°55.106 6.7 351 6.8 102650 87
2009-03-19 07:39:45 51°14.343 2°55.081 7.5 350 6.8 102650 87
2009-03-19 07:39:49 51°14.349 2°55.064 7.1 352 6.8 102650 87
2009-03-19 07:39:54 51°14.358 2°55.042 6.8 352 6.8 102650 87
2009-03-19 07:39:59 51°14.366 2°55.02 6.9 351 6.8 102660 87
2009-03-19 07:40:04 51°14.374 2°54.998 7.1 351 6.8 102660 87
2009-03-19 07:40:09 51°14.383 2°54.977 8.4 280 6.8 102660 87
2009-03-19 07:40:13 51°14.39 2°54.959 8.6 350 6.8 102660 87
2009-03-19 07:40:19 51°14.401 2°54.933 8.9 349 6.8 102650 87
2009-03-19 07:40:24 51°14.41 2°54.912 8.8 348 6.8 102650 87
2009-03-19 07:40:29 51°14.421 2°54.891 7.6 279 6.8 102660 88
2009-03-19 07:40:34 51°14.431 2°54.869 8.5 350 6.8 102660 88
2009-03-19 07:40:39 51°14.442 2°54.849 7.7 350 6.8 102650 88
2009-03-19 07:40:44 51°14.452 2°54.827 9.4 349 6.8 102650 88
2009-03-19 07:40:49 51°14.464 2°54.807 9.6 347 6.8 102650 87
2009-03-19 07:40:54 51°14.475 2°54.787 9.3 347 6.8 102650 87
2009-03-19 07:40:59 51°14.488 2°54.767 9 348 6.8 102650 87
2009-03-19 07:41:04 51°14.501 2°54.747 8 349 6.8 102650 87
2009-03-19 07:41:09 51°14.513 2°54.727 9.9 349 6.8 102650 87
2009-03-19 07:41:14 51°14.525 2°54.707 8.5 348 6.8 102650 87
2009-03-19 07:41:18 51°14.534 2°54.691 8.8 279 6.8 102640 87
2009-03-19 07:41:24 51°14.549 2°54.668 8.5 348 6.8 102640 87
2009-03-19 07:41:29 51°14.561 2°54.649 8.3 281 6.8 102650 86
2009-03-19 07:41:34 51°14.574 2°54.631 9.7 347 6.8 102650 86
2009-03-19 07:41:39 51°14.587 2°54.614 8.5 349 6.8 102640 86
2009-03-19 07:41:44 51°14.601 2°54.597 9.8 346 6.8 102640 86
2009-03-19 07:41:49 51°14.615 2°54.581 8.9 283 6.8 102650 87
2009-03-19 07:41:54 51°14.628 2°54.564 9.1 348 6.8 102650 87
2009-03-19 07:41:59 51°14.642 2°54.549 10.2 347 6.8 102640 87
2009-03-19 07:42:04 51°14.656 2°54.535 9.3 346 6.8 102640 87
2009-03-19 07:42:09 51°14.671 2°54.521 9.5 280 6.8 102640 86
2009-03-19 07:42:14 51°14.685 2°54.507 8.7 346 6.8 102640 86
2009-03-19 07:42:18 51°14.697 2°54.497 9.4 279 6.8 102640 86
2009-03-19 07:42:25 51°14.717 2°54.478 10 346 6.8 102640 86
2009-03-19 07:42:29 51°14.728 2°54.467 10.2 281 6.8 102640 86
2009-03-19 07:42:34 51°14.743 2°54.452 10.1 348 6.8 102640 86
2009-03-19 07:42:39 51°14.757 2°54.438 9.2 347 6.8 102640 86
2009-03-19 07:42:44 51°14.771 2°54.423 10.2 347 6.8 102640 86
2009-03-19 07:42:49 51°14.785 2°54.408 9.9 282 6.8 102630 86
2009-03-19 07:42:55 51°14.802 2°54.39 8.5 346 6.8 102630 86
2009-03-19 07:43:00 51°14.815 2°54.375 8.8 348 6.7 102640 86
2009-03-19 07:43:05 51°14.829 2°54.36 8.5 345 6.7 102640 86
2009-03-19 07:43:09 51°14.84 2°54.348 10.2 280 6.7 102640 85
2009-03-19 07:43:15 51°14.857 2°54.331 9.2 346 6.7 102640 85
2009-03-19 07:43:19 51°14.868 2°54.318 9.2 279 6.8 102640 85
2009-03-19 07:43:25 51°14.885 2°54.302 10.3 345 6.8 102640 85
2009-03-19 07:43:30 51°14.899 2°54.287 9.9 280 6.7 102640 85
2009-03-19 07:43:35 51°14.914 2°54.274 10.7 346 6.7 102640 85
2009-03-19 07:43:39 51°14.925 2°54.263 9 344 6.7 102630 85
2009-03-19 07:43:45 51°14.942 2°54.246 9.1 345 6.7 102630 85
2009-03-19 07:43:50 51°14.956 2°54.232 10.2 279 6.7 102640 85
2009-03-19 07:43:54 51°14.967 2°54.221 11.1 345 6.7 102640 85
2009-03-19 07:44:00 51°14.984 2°54.204 11.3 346 6.7 102640 85
2009-03-19 07:44:05 51°14.998 2°54.19 9.6 343 6.7 102640 85
2009-03-19 07:44:10 51°15.012 2°54.176 9 279 6.7 102640 84
2009-03-19 07:44:14 51°15.023 2°54.165 10.4 345 6.7 102640 84
2009-03-19 07:44:19 51°15.038 2°54.151 8.8 344 6.7 102640 84
2009-03-19 07:44:24 51°15.052 2°54.137 10.5 345 6.7 102640 84
2009-03-19 07:44:29 51°15.067 2°54.124 9 282 6.7 102640 84
2009-03-19 07:44:34 51°15.081 2°54.11 9.5 344 6.7 102640 84
2009-03-19 07:44:39 51°15.095 2°54.096 10.7 283 6.7 102640 83
2009-03-19 07:44:44 51°15.109 2°54.083 10.9 344 6.7 102640 83
2009-03-19 07:44:49 51°15.124 2°54.069 10.9 284 6.7 102640 84
2009-03-19 07:44:54 51°15.138 2°54.056 10.7 344 6.7 102640 84
2009-03-19 07:44:59 51°15.153 2°54.043 9.4 345 6.7 102640 84
2009-03-19 07:45:04 51°15.168 2°54.03 9.3 343 6.7 102640 84
2009-03-19 07:45:09 51°15.183 2°54.018 10.8 283 6.7 102640 84
2009-03-19 07:45:14 51°15.198 2°54.005 11.2 345 6.7 102640 84
2009-03-19 07:45:19 51°15.212 2°53.992 9.5 282 6.8 102650 83
2009-03-19 07:45:24 51°15.227 2°53.98 11.1 344 6.8 102650 83
2009-03-19 07:45:29 51°15.242 2°53.967 9.7 344 6.7 102640 83
2009-03-19 07:45:34 51°15.257 2°53.954 11 344 6.7 102640 83
2009-03-19 07:45:39 51°15.272 2°53.941 11.1 345 6.7 102640 84
2009-03-19 07:45:44 51°15.287 2°53.928 10.6 344 6.7 102640 84
2009-03-19 07:45:49 51°15.302 2°53.916 11.2 283 6.8 102640 83
2009-03-19 07:45:54 51°15.316 2°53.903 10.9 345 6.8 102640 83
2009-03-19 07:45:59 51°15.331 2°53.889 9.4 344 6.8 102640 83
2009-03-19 07:46:04 51°15.346 2°53.876 11.1 346 6.8 102640 83
2009-03-19 07:46:09 51°15.361 2°53.864 9.9 282 6.8 102640 83
2009-03-19 07:46:14 51°15.376 2°53.851 9.6 345 6.8 102640 83
2009-03-19 07:46:19 51°15.391 2°53.838 9.1 278 6.8 102640 83
2009-03-19 07:46:24 51°15.406 2°53.826 10.5 345 6.8 102640 83
2009-03-19 07:46:29 51°15.421 2°53.813 10.9 283 6.8 102640 82
2009-03-19 07:46:34 51°15.436 2°53.8 11.1 345 6.8 102640 82
2009-03-19 07:46:39 51°15.451 2°53.787 9.3 280 6.8 102640 83
2009-03-19 07:46:44 51°15.466 2°53.774 9.7 345 6.8 102640 83
2009-03-19 07:46:49 51°15.481 2°53.761 9.5 281 6.8 102650 81
2009-03-19 07:46:54 51°15.495 2°53.748 11.6 345 6.8 102650 81
2009-03-19 07:46:59 51°15.51 2°53.736 10.8 346 6.8 102640 80
2009-03-19 07:47:04 51°15.525 2°53.723 10.4 346 6.8 102640 80
2009-03-19 07:47:09 51°15.54 2°53.711 11.1 281 6.8 102650 81
2009-03-19 07:47:14 51°15.555 2°53.698 9.4 345 6.8 102650 81
2009-03-19 07:47:19 51°15.569 2°53.685 9.5 281 6.8 102640 83
2009-03-19 07:47:23 51°15.581 2°53.674 9.4 345 6.8 102640 83
2009-03-19 07:47:29 51°15.599 2°53.659 11 281 6.8 102640 83
2009-03-19 07:47:34 51°15.614 2°53.646 9.6 347 6.8 102640 83
2009-03-19 07:47:39 51°15.628 2°53.634 10.6 282 6.8 102640 80
2009-03-19 07:47:44 51°15.643 2°53.621 9.7 346 6.8 102640 80
2009-03-19 07:47:49 51°15.658 2°53.609 9.6 281 6.8 102640 82
2009-03-19 07:47:54 51°15.672 2°53.596 9.7 345 6.8 102640 82
2009-03-19 07:47:59 51°15.687 2°53.583 9.4 345 6.8 102650 83
2009-03-19 07:48:04 51°15.702 2°53.571 10.2 346 6.8 102650 83
2009-03-19 07:48:09 51°15.717 2°53.558 10.7 280 6.8 102650 83
2009-03-19 07:48:14 51°15.731 2°53.545 11.5 347 6.8 102650 83
2009-03-19 07:48:19 51°15.746 2°53.532 11.1 280 6.8 102640 83
2009-03-19 07:48:24 51°15.761 2°53.519 9.7 345 6.8 102640 83
2009-03-19 07:48:29 51°15.776 2°53.507 11.2 284 6.8 102640 83
2009-03-19 07:48:34 51°15.79 2°53.494 9 344 6.8 102640 83
2009-03-19 07:48:39 51°15.805 2°53.481 9.7 281 6.8 102640 83
2009-03-19 07:48:44 51°15.82 2°53.468 9.8 346 6.8 102640 83
2009-03-19 07:48:49 51°15.835 2°53.455 9.6 282 6.8 102640 82
2009-03-19 07:48:54 51°15.85 2°53.443 10.8 345 6.8 102640 82
2009-03-19 07:48:59 51°15.864 2°53.43 11.5 346 6.8 102640 81
2009-03-19 07:49:04 51°15.879 2°53.417 9.8 346 6.8 102640 81
2009-03-19 07:49:09 51°15.895 2°53.405 10 280 6.8 102640 81
2009-03-19 07:49:14 51°15.91 2°53.392 10.6 346 6.8 102640 81
2009-03-19 07:49:19 51°15.925 2°53.379 11.2 345 6.8 102640 80
2009-03-19 07:49:24 51°15.939 2°53.367 9.8 346 6.8 102640 80
2009-03-19 07:49:29 51°15.954 2°53.354 9.4 281 6.8 102650 83
2009-03-19 07:49:34 51°15.97 2°53.341 11.1 346 6.8 102650 83
2009-03-19 07:49:39 51°15.985 2°53.329 9.6 280 6.8 102640 83
2009-03-19 07:49:44 51°16 2°53.316 11.1 347 6.8 102640 83
2009-03-19 07:49:49 51°16.015 2°53.304 10.6 280 6.8 102650 83
2009-03-19 07:49:54 51°16.029 2°53.291 10 347 6.8 102650 83
2009-03-19 07:49:59 51°16.044 2°53.278 12.1 348 6.8 102650 83
2009-03-19 07:50:04 51°16.059 2°53.265 10.3 345 6.8 102650 83
2009-03-19 07:50:09 51°16.074 2°53.253 9.6 347 6.8 102650 83
2009-03-19 07:50:14 51°16.089 2°53.24 11 346 6.8 102650 83
2009-03-19 07:50:19 51°16.104 2°53.227 10.2 348 6.8 102650 83
2009-03-19 07:50:24 51°16.12 2°53.215 10.7 346 6.8 102650 83
2009-03-19 07:50:29 51°16.135 2°53.202 9.8 278 6.8 102650 82
2009-03-19 07:50:34 51°16.15 2°53.19 11.3 346 6.8 102650 82
2009-03-19 07:50:39 51°16.165 2°53.178 11.2 284 6.8 102650 82
2009-03-19 07:50:44 51°16.18 2°53.166 11.8 346 6.8 102650 82
2009-03-19 07:50:49 51°16.195 2°53.154 10.1 278 6.8 102640 82
2009-03-19 07:50:54 51°16.211 2°53.143 9.3 345 6.8 102640 82
2009-03-19 07:50:59 51°16.226 2°53.131 10.4 -999 6.8 102650 82
2009-03-19 07:51:04 51°16.241 2°53.119 10.3 346 6.8 102650 82
2009-03-19 07:51:09 51°16.257 2°53.108 10 281 6.8 102650 83
2009-03-19 07:51:14 51°16.272 2°53.096 10.5 346 6.8 102650 83
2009-03-19 07:51:19 51°16.287 2°53.084 11.2 284 6.8 102650 83
2009-03-19 07:51:23 51°16.299 2°53.075 10.1 346 6.8 102650 83
2009-03-19 07:51:29 51°16.318 2°53.061 10.9 285 6.8 102650 83
2009-03-19 07:51:34 51°16.333 2°53.05 10.3 348 6.8 102650 83
2009-03-19 07:51:39 51°16.348 2°53.038 9.6 346 6.8 102650 83
2009-03-19 07:51:44 51°16.363 2°53.026 11.9 346 6.8 102650 83
2009-03-19 07:51:49 51°16.378 2°53.015 11.7 284 6.8 102650 84
2009-03-19 07:51:54 51°16.394 2°53.004 11.8 346 6.8 102650 84
2009-03-19 07:51:59 51°16.409 2°52.992 10.5 345 6.8 102650 83
2009-03-19 07:52:04 51°16.425 2°52.982 11.2 344 6.8 102650 83
2009-03-19 07:52:09 51°16.44 2°52.971 12.1 284 6.8 102640 83
2009-03-19 07:52:14 51°16.456 2°52.961 10.9 345 6.8 102640 83
2009-03-19 07:52:19 51°16.471 2°52.95 11.8 283 6.8 102650 84
2009-03-19 07:52:24 51°16.487 2°52.939 12 344 6.8 102650 84
2009-03-19 07:52:29 51°16.503 2°52.928 9.8 279 6.8 102650 83
2009-03-19 07:52:34 51°16.519 2°52.918 11.9 346 6.8 102650 83
2009-03-19 07:52:39 51°16.534 2°52.907 11.7 283 6.8 102650 84
2009-03-19 07:52:44 51°16.55 2°52.897 9.8 345 6.8 102650 84
2009-03-19 07:52:49 51°16.566 2°52.886 10.3 284 6.8 102650 83
2009-03-19 07:52:54 51°16.581 2°52.875 11.2 347 6.8 102650 83
2009-03-19 07:52:59 51°16.597 2°52.864 10.4 346 6.8 102650 84
2009-03-19 07:53:04 51°16.612 2°52.854 10 345 6.8 102650 84
2009-03-19 07:53:09 51°16.628 2°52.843 10.1 281 6.8 102650 83
2009-03-19 07:53:14 51°16.644 2°52.833 11.7 345 6.8 102650 83
2009-03-19 07:53:19 51°16.659 2°52.822 9.9 285 6.8 102650 84
2009-03-19 07:53:24 51°16.675 2°52.813 11.8 345 6.8 102650 84
2009-03-19 07:53:29 51°16.691 2°52.803 9.9 282 6.8 102650 84
2009-03-19 07:53:34 51°16.707 2°52.793 10.8 344 6.8 102650 84
2009-03-19 07:53:39 51°16.723 2°52.784 11.7 283 6.8 102650 84
2009-03-19 07:53:44 51°16.738 2°52.773 12.7 345 6.8 102650 84
2009-03-19 07:53:49 51°16.754 2°52.763 10.1 281 6.8 102660 84
2009-03-19 07:53:54 51°16.77 2°52.753 11.8 344 6.8 102660 84
2009-03-19 07:53:59 51°16.785 2°52.743 11.4 344 6.8 102660 84
2009-03-19 07:54:04 51°16.801 2°52.732 11.4 345 6.8 102660 84
2009-03-19 07:54:09 51°16.816 2°52.722 11.8 281 6.8 102650 85
2009-03-19 07:54:14 51°16.832 2°52.711 9.6 346 6.8 102650 85
2009-03-19 07:54:19 51°16.847 2°52.701 11.8 280 6.8 102650 84
2009-03-19 07:54:24 51°16.863 2°52.691 10.3 344 6.8 102650 84
2009-03-19 07:54:29 51°16.879 2°52.681 12.1 345 6.8 102660 84
2009-03-19 07:54:34 51°16.894 2°52.671 10.5 344 6.8 102660 84
2009-03-19 07:54:39 51°16.91 2°52.662 12 347 6.8 102650 85
2009-03-19 07:54:44 51°16.926 2°52.652 10.2 344 6.8 102650 85
2009-03-19 07:54:49 51°16.941 2°52.641 12.2 285 6.8 102660 85
2009-03-19 07:54:54 51°16.957 2°52.632 10.4 343 6.8 102660 85
2009-03-19 07:54:59 51°16.973 2°52.622 11.8 345 6.8 102660 85
2009-03-19 07:55:04 51°16.989 2°52.613 12.5 344 6.8 102660 85
2009-03-19 07:55:09 51°17.005 2°52.604 10.5 346 6.8 102660 85
2009-03-19 07:55:14 51°17.021 2°52.595 11.7 343 6.8 102660 85
2009-03-19 07:55:19 51°17.037 2°52.587 12.2 280 6.8 102650 85
2009-03-19 07:55:24 51°17.053 2°52.579 12.2 343 6.8 102650 85
2009-03-19 07:55:29 51°17.07 2°52.572 10.6 282 6.8 102660 85
2009-03-19 07:55:34 51°17.086 2°52.564 10.3 343 6.8 102660 85
2009-03-19 07:55:39 51°17.102 2°52.558 10.1 279 6.7 102660 86
2009-03-19 07:55:44 51°17.118 2°52.551 10.1 343 6.7 102660 86
2009-03-19 07:55:49 51°17.135 2°52.544 12.3 281 6.8 102660 86
2009-03-19 07:55:54 51°17.152 2°52.537 10.5 343 6.8 102660 86
2009-03-19 07:55:59 51°17.168 2°52.531 9.9 344 6.8 102660 85
2009-03-19 07:56:04 51°17.185 2°52.525 11.1 342 6.8 102660 85
2009-03-19 07:56:09 51°17.202 2°52.52 10.1 281 6.8 102660 86
2009-03-19 07:56:14 51°17.218 2°52.514 11.9 343 6.8 102660 86
2009-03-19 07:56:19 51°17.235 2°52.508 10.4 282 6.8 102660 86
2009-03-19 07:56:24 51°17.252 2°52.503 12.7 342 6.8 102660 86
2009-03-19 07:56:29 51°17.269 2°52.497 12.2 342 6.8 102660 86
2009-03-19 07:56:34 51°17.286 2°52.492 10.4 342 6.8 102660 86
2009-03-19 07:56:39 51°17.303 2°52.486 12.4 281 6.8 102660 86
2009-03-19 07:56:44 51°17.319 2°52.481 10.4 341 6.8 102660 86
2009-03-19 07:56:49 51°17.336 2°52.476 12.2 343 6.8 102660 86
2009-03-19 07:56:54 51°17.353 2°52.471 12.6 343 6.8 102660 86
2009-03-19 07:56:59 51°17.37 2°52.466 12.2 342 6.8 102660 86
2009-03-19 07:57:04 51°17.387 2°52.462 10.9 342 6.8 102660 86
2009-03-19 07:57:09 51°17.404 2°52.457 12.3 284 6.8 102660 86
2009-03-19 07:57:14 51°17.421 2°52.452 11.6 341 6.8 102660 86
2009-03-19 07:57:19 51°17.438 2°52.447 11.4 284 6.8 102660 86
2009-03-19 07:57:24 51°17.455 2°52.442 10.2 342 6.8 102660 86
2009-03-19 07:57:29 51°17.472 2°52.437 11.3 279 6.8 102660 86
2009-03-19 07:57:34 51°17.489 2°52.433 10.9 343 6.8 102660 86
2009-03-19 07:57:39 51°17.506 2°52.429 10.4 280 6.8 102670 86
2009-03-19 07:57:44 51°17.523 2°52.424 12.9 342 6.8 102670 86
2009-03-19 07:57:49 51°17.539 2°52.421 12 287 6.8 102670 87
2009-03-19 07:57:54 51°17.556 2°52.417 10.4 342 6.8 102670 87
2009-03-19 07:57:59 51°17.574 2°52.413 12 343 6.8 102660 87
2009-03-19 07:58:04 51°17.591 2°52.41 13.2 342 6.8 102660 87
2009-03-19 07:58:09 51°17.608 2°52.407 10.9 278 6.8 102670 87
2009-03-19 07:58:14 51°17.625 2°52.404 12.1 341 6.8 102670 87
2009-03-19 07:58:19 51°17.642 2°52.4 10.7 281 6.8 102660 87
2009-03-19 07:58:24 51°17.659 2°52.397 12.6 342 6.8 102660 87
2009-03-19 07:58:29 51°17.676 2°52.393 10.9 278 6.8 102670 86
2009-03-19 07:58:34 51°17.693 2°52.39 12.2 340 6.8 102670 86
2009-03-19 07:58:39 51°17.71 2°52.388 10.5 283 6.8 102660 86
2009-03-19 07:58:44 51°17.727 2°52.385 11 340 6.8 102660 86
2009-03-19 07:58:49 51°17.745 2°52.383 12.2 283 6.8 102660 87
2009-03-19 07:58:54 51°17.762 2°52.381 12.3 338 6.8 102660 87
2009-03-19 07:58:59 51°17.779 2°52.379 10.9 339 6.8 102670 87
2009-03-19 07:59:04 51°17.797 2°52.379 11.7 339 6.8 102670 87
2009-03-19 07:59:09 51°17.814 2°52.378 13 283 6.8 102660 86
2009-03-19 07:59:14 51°17.831 2°52.378 11.1 338 6.8 102660 86
2009-03-19 07:59:19 51°17.849 2°52.378 12.7 280 6.8 102670 86
2009-03-19 07:59:24 51°17.866 2°52.378 12.4 338 6.8 102670 86
2009-03-19 07:59:29 51°17.883 2°52.379 11.3 280 6.8 102670 86
2009-03-19 07:59:34 51°17.901 2°52.379 13.5 339 6.8 102670 86
2009-03-19 07:59:39 51°17.918 2°52.38 12.5 283 6.8 102670 87
2009-03-19 07:59:44 51°17.935 2°52.38 11.5 338 6.8 102670 87
2009-03-19 07:59:49 51°17.952 2°52.381 11.5 282 6.8 102670 86
2009-03-19 07:59:54 51°17.97 2°52.381 13.1 340 6.8 102670 86
2009-03-19 07:59:59 51°17.987 2°52.382 10.8 339 6.8 102660 86
2009-03-19 08:00:04 51°18.005 2°52.383 12.3 339 6.8 102660 86
2009-03-19 08:00:09 51°18.022 2°52.383 11.2 281 6.8 102670 86
2009-03-19 08:00:14 51°18.039 2°52.383 10.9 339 6.8 102670 86
2009-03-19 08:00:19 51°18.057 2°52.384 12.8 282 6.8 102670 86
2009-03-19 08:00:24 51°18.074 2°52.385 11 339 6.8 102670 86
2009-03-19 08:00:29 51°18.091 2°52.385 13.2 282 6.8 102670 86
2009-03-19 08:00:34 51°18.108 2°52.386 11.7 339 6.8 102670 86
2009-03-19 08:00:39 51°18.126 2°52.386 11.4 281 6.8 102670 86
2009-03-19 08:00:44 51°18.143 2°52.386 12.9 339 6.8 102670 86
2009-03-19 08:00:49 51°18.16 2°52.386 13.1 283 6.9 102670 86
2009-03-19 08:00:54 51°18.177 2°52.386 12.8 339 6.9 102670 86
2009-03-19 08:00:59 51°18.195 2°52.388 12.6 340 6.8 102670 85
2009-03-19 08:01:04 51°18.212 2°52.388 12.6 340 6.8 102670 85
2009-03-19 08:01:09 51°18.229 2°52.388 11.6 283 6.8 102670 86
2009-03-19 08:01:14 51°18.246 2°52.388 12.7 339 6.8 102670 86
2009-03-19 08:01:19 51°18.264 2°52.388 13.1 277 6.8 102670 85
2009-03-19 08:01:24 51°18.281 2°52.388 11.2 338 6.8 102670 85
2009-03-19 08:01:29 51°18.298 2°52.387 12.3 283 6.9 102670 86
2009-03-19 08:01:34 51°18.316 2°52.387 11 338 6.9 102670 86
2009-03-19 08:01:39 51°18.333 2°52.387 12.5 284 6.9 102670 85
2009-03-19 08:01:44 51°18.351 2°52.386 10.8 339 6.9 102670 85
2009-03-19 08:01:49 51°18.368 2°52.386 10.4 283 6.9 102670 85
2009-03-19 08:01:54 51°18.385 2°52.385 10.8 339 6.9 102670 85
2009-03-19 08:01:59 51°18.402 2°52.385 13 337 6.9 102680 86
2009-03-19 08:02:04 51°18.419 2°52.384 11 337 6.9 102680 86
2009-03-19 08:02:09 51°18.437 2°52.384 11.6 287 6.9 102670 86
2009-03-19 08:02:14 51°18.454 2°52.383 11.4 339 6.9 102670 86
2009-03-19 08:02:19 51°18.472 2°52.382 11 280 6.9 102670 86
2009-03-19 08:02:24 51°18.489 2°52.381 10.9 339 6.9 102670 86
2009-03-19 08:02:29 51°18.506 2°52.38 11 281 6.9 102670 85
2009-03-19 08:02:34 51°18.523 2°52.379 11.3 338 6.9 102670 85
2009-03-19 08:02:39 51°18.541 2°52.378 10.9 285 6.9 102680 83
2009-03-19 08:02:45 51°18.561 2°52.377 12.1 339 6.9 102680 83
2009-03-19 08:02:49 51°18.575 2°52.376 12.1 282 6.9 102670 83
2009-03-19 08:02:54 51°18.592 2°52.375 11.2 338 6.9 102670 83
2009-03-19 08:02:59 51°18.609 2°52.374 13.1 339 6.9 102680 85
2009-03-19 08:03:05 51°18.63 2°52.373 12.6 340 6.9 102680 85
2009-03-19 08:03:09 51°18.644 2°52.373 11.1 278 6.9 102670 85
2009-03-19 08:03:14 51°18.661 2°52.372 11.5 339 6.9 102670 85
2009-03-19 08:03:19 51°18.678 2°52.371 12.5 285 6.9 102680 85
2009-03-19 08:03:24 51°18.695 2°52.37 11.9 338 6.9 102680 85
2009-03-19 08:03:29 51°18.712 2°52.369 11.3 278 6.9 102670 86
2009-03-19 08:03:34 51°18.729 2°52.368 12.2 338 6.9 102670 86
2009-03-19 08:03:39 51°18.747 2°52.367 11.9 283 6.9 102670 85
2009-03-19 08:03:44 51°18.764 2°52.366 11.9 339 6.9 102670 85
2009-03-19 08:03:49 51°18.781 2°52.365 11.4 287 6.9 102670 85
2009-03-19 08:03:54 51°18.798 2°52.364 12.3 339 6.9 102670 85
2009-03-19 08:03:59 51°18.815 2°52.362 10.7 338 6.9 102670 85
2009-03-19 08:04:04 51°18.833 2°52.361 11.3 339 6.9 102670 85
2009-03-19 08:04:09 51°18.85 2°52.36 13 286 6.9 102680 85
2009-03-19 08:04:14 51°18.867 2°52.359 11 339 6.9 102680 85
2009-03-19 08:04:19 51°18.884 2°52.358 12 279 6.9 102670 84
2009-03-19 08:04:24 51°18.902 2°52.357 12.1 338 6.9 102670 84
2009-03-19 08:04:29 51°18.919 2°52.356 10.7 279 6.9 102670 85
2009-03-19 08:04:34 51°18.936 2°52.356 11.9 339 6.9 102670 85
2009-03-19 08:04:39 51°18.953 2°52.355 12.1 286 6.9 102670 85
2009-03-19 08:04:44 51°18.971 2°52.353 11.1 339 6.9 102670 85
2009-03-19 08:04:49 51°18.988 2°52.352 10.7 286 6.9 102680 83
2009-03-19 08:04:54 51°19.005 2°52.351 10.4 338 6.9 102680 83
2009-03-19 08:04:59 51°19.023 2°52.35 10.6 339 6.9 102670 84
2009-03-19 08:05:04 51°19.04 2°52.349 11.8 338 6.9 102670 84
2009-03-19 08:05:09 51°19.057 2°52.348 11.4 281 6.9 102680 84
2009-03-19 08:05:14 51°19.075 2°52.347 10.8 339 6.9 102680 84
2009-03-19 08:05:19 51°19.092 2°52.346 11.1 284 6.9 102680 85
2009-03-19 08:05:24 51°19.109 2°52.345 11.1 338 6.9 102680 85
2009-03-19 08:05:29 51°19.127 2°52.344 11.1 279 6.9 102680 85
2009-03-19 08:05:34 51°19.144 2°52.343 12.1 339 6.9 102680 85
2009-03-19 08:05:39 51°19.161 2°52.341 11 282 6.9 102680 85
2009-03-19 08:05:43 51°19.175 2°52.341 11 339 6.9 102680 85
2009-03-19 08:05:49 51°19.196 2°52.34 12.1 279 6.9 102680 85
2009-03-19 08:05:54 51°19.214 2°52.339 11.1 339 6.9 102680 85
2009-03-19 08:05:59 51°19.231 2°52.338 12.1 338 6.9 102680 85
2009-03-19 08:06:04 51°19.248 2°52.337 11.2 339 6.9 102680 85
2009-03-19 08:06:09 51°19.266 2°52.336 10.7 278 6.9 102680 85
2009-03-19 08:06:14 51°19.283 2°52.335 12.4 337 6.9 102680 85
2009-03-19 08:06:19 51°19.301 2°52.334 12.3 283 6.9 102680 85
2009-03-19 08:06:24 51°19.318 2°52.333 11.2 339 6.9 102680 85
2009-03-19 08:06:29 51°19.336 2°52.332 11.2 281 6.9 102690 85
2009-03-19 08:06:34 51°19.353 2°52.332 12.3 340 6.9 102690 85
2009-03-19 08:06:39 51°19.371 2°52.331 12.6 287 6.9 102680 84
2009-03-19 08:06:44 51°19.388 2°52.329 11.1 340 6.9 102680 84
2009-03-19 08:06:49 51°19.405 2°52.328 13.2 286 6.9 102680 85
2009-03-19 08:06:54 51°19.423 2°52.326 11.8 341 6.9 102680 85
2009-03-19 08:06:59 51°19.44 2°52.324 12 342 6.9 102680 85
2009-03-19 08:07:04 51°19.458 2°52.322 12.8 341 6.9 102680 85
2009-03-19 08:07:09 51°19.475 2°52.321 11.3 283 6.9 102680 85
2009-03-19 08:07:14 51°19.492 2°52.32 13.9 340 6.9 102680 85
2009-03-19 08:07:19 51°19.51 2°52.319 11.5 279 6.9 102680 85
2009-03-19 08:07:24 51°19.527 2°52.318 11.5 339 6.9 102680 85
2009-03-19 08:07:29 51°19.545 2°52.318 11.5 282 6.9 102690 84
2009-03-19 08:07:34 51°19.562 2°52.317 11.8 340 6.9 102690 84
2009-03-19 08:07:39 51°19.58 2°52.317 13.3 283 6.9 102690 86
2009-03-19 08:07:44 51°19.597 2°52.317 13 339 6.9 102690 86
2009-03-19 08:07:49 51°19.615 2°52.316 11.8 286 6.9 102690 85
2009-03-19 08:07:54 51°19.632 2°52.316 11.7 341 6.9 102690 85
2009-03-19 08:07:59 51°19.65 2°52.316 11.7 340 6.9 102690 86
2009-03-19 08:08:04 51°19.667 2°52.315 13.1 341 6.9 102690 86
2009-03-19 08:08:10 51°19.688 2°52.315 10.5 284 6.9 102680 86
2009-03-19 08:08:14 51°19.702 2°52.315 11.3 339 6.9 102680 86
2009-03-19 08:08:19 51°19.719 2°52.315 10.4 283 6.9 102690 86
2009-03-19 08:08:23 51°19.733 2°52.315 11.1 340 6.9 102690 86
2009-03-19 08:08:29 51°19.754 2°52.315 11.4 284 6.9 102690 86
2009-03-19 08:08:34 51°19.772 2°52.316 12.2 339 6.9 102690 86
2009-03-19 08:08:39 51°19.789 2°52.316 11.8 281 6.9 102690 86
2009-03-19 08:08:44 51°19.807 2°52.316 11.6 340 6.9 102690 86
2009-03-19 08:08:49 51°19.824 2°52.316 13.5 285 6.9 102680 86
2009-03-19 08:08:54 51°19.842 2°52.316 11.4 339 6.9 102680 86
2009-03-19 08:08:59 51°19.859 2°52.316 13.2 341 6.9 102680 85
2009-03-19 08:09:04 51°19.876 2°52.317 12 339 6.9 102680 85
2009-03-19 08:09:09 51°19.894 2°52.317 12.1 280 6.9 102690 84
2009-03-19 08:09:14 51°19.911 2°52.318 12.9 339 6.9 102690 84
2009-03-19 08:09:19 51°19.928 2°52.319 11 285 6.9 102690 85
2009-03-19 08:09:24 51°19.946 2°52.32 12.4 338 6.9 102690 85
2009-03-19 08:09:29 51°19.963 2°52.32 12.1 286 6.9 102680 85
2009-03-19 08:09:34 51°19.98 2°52.322 12.4 338 6.9 102680 85
2009-03-19 08:09:39 51°19.998 2°52.324 13.1 286 6.9 102690 86
2009-03-19 08:09:44 51°20.015 2°52.325 13.1 339 6.9 102690 86
2009-03-19 08:09:49 51°20.033 2°52.326 12.6 287 6.9 102690 85
2009-03-19 08:09:54 51°20.05 2°52.328 13 338 6.9 102690 85
2009-03-19 08:09:59 51°20.067 2°52.329 11.3 339 6.9 102690 86
2009-03-19 08:10:04 51°20.085 2°52.331 12.8 339 6.9 102690 86
2009-03-19 08:10:09 51°20.102 2°52.332 11.2 279 6.9 102690 85
2009-03-19 08:10:14 51°20.119 2°52.333 12.5 338 6.9 102690 85
2009-03-19 08:10:19 51°20.137 2°52.335 12 282 6.9 102700 85
2009-03-19 08:10:24 51°20.154 2°52.336 12.6 340 6.9 102700 85
2009-03-19 08:10:29 51°20.172 2°52.337 13.9 286 6.9 102690 85
2009-03-19 08:10:34 51°20.189 2°52.338 13.7 338 6.9 102690 85
2009-03-19 08:10:39 51°20.206 2°52.34 13.7 282 6.9 102690 86
2009-03-19 08:10:44 51°20.223 2°52.341 13.2 338 6.9 102690 86
2009-03-19 08:10:49 51°20.241 2°52.342 12.1 287 6.9 102690 86
2009-03-19 08:10:54 51°20.258 2°52.343 13.1 337 6.9 102690 86
2009-03-19 08:10:59 51°20.275 2°52.344 13.3 338 6.9 102690 86
2009-03-19 08:11:04 51°20.292 2°52.346 11.6 338 6.9 102690 86
2009-03-19 08:11:09 51°20.31 2°52.347 13.6 281 6.8 102690 86
2009-03-19 08:11:14 51°20.327 2°52.348 11.9 338 6.8 102690 86
2009-03-19 08:11:19 51°20.344 2°52.349 12.6 282 6.9 102690 85
2009-03-19 08:11:24 51°20.362 2°52.35 11.4 339 6.9 102690 85
2009-03-19 08:11:29 51°20.379 2°52.35 11.2 280 6.9 102700 85
2009-03-19 08:11:34 51°20.397 2°52.351 11.8 338 6.9 102700 85
2009-03-19 08:11:39 51°20.414 2°52.352 12.5 281 6.9 102690 86
2009-03-19 08:11:44 51°20.432 2°52.352 12.4 338 6.9 102690 86
2009-03-19 08:11:49 51°20.449 2°52.353 11.6 283 6.9 102690 84
2009-03-19 08:11:54 51°20.466 2°52.354 12.5 338 6.9 102690 84
2009-03-19 08:11:59 51°20.483 2°52.355 12.1 338 6.9 102700 86
2009-03-19 08:12:04 51°20.501 2°52.356 11.5 338 6.9 102700 86
2009-03-19 08:12:09 51°20.518 2°52.357 10.6 284 6.9 102700 87
2009-03-19 08:12:14 51°20.535 2°52.358 11.5 339 6.9 102700 87
2009-03-19 08:12:19 51°20.553 2°52.358 12.4 284 6.9 102700 85
2009-03-19 08:12:23 51°20.567 2°52.359 12.3 338 6.9 102700 85
2009-03-19 08:12:29 51°20.587 2°52.359 12.4 286 6.9 102700 85
2009-03-19 08:12:34 51°20.605 2°52.36 11.7 341 6.9 102700 85
2009-03-19 08:12:39 51°20.622 2°52.361 12 280 6.8 102700 85
2009-03-19 08:12:44 51°20.64 2°52.362 11.5 339 6.8 102700 85
2009-03-19 08:12:49 51°20.657 2°52.362 13.1 282 6.8 102700 84
2009-03-19 08:12:54 51°20.674 2°52.363 12.2 337 6.8 102700 84
2009-03-19 08:12:59 51°20.692 2°52.364 12.4 339 6.8 102700 83
2009-03-19 08:13:04 51°20.709 2°52.365 12 337 6.8 102700 83
2009-03-19 08:13:09 51°20.726 2°52.365 11.8 281 6.8 102700 84
2009-03-19 08:13:14 51°20.744 2°52.366 12.3 339 6.8 102700 84
2009-03-19 08:13:19 51°20.761 2°52.367 13.3 284 6.8 102690 84
2009-03-19 08:13:24 51°20.779 2°52.367 12.9 339 6.8 102690 84
2009-03-19 08:13:29 51°20.796 2°52.368 13.2 287 6.8 102700 85
2009-03-19 08:13:34 51°20.814 2°52.369 13.6 339 6.8 102700 85
2009-03-19 08:13:39 51°20.831 2°52.371 11.8 285 6.8 102700 84
2009-03-19 08:13:44 51°20.849 2°52.372 11.8 340 6.8 102700 84
2009-03-19 08:13:49 51°20.866 2°52.374 14.3 286 6.8 102700 85
2009-03-19 08:13:54 51°20.883 2°52.376 12.3 336 6.8 102700 85
2009-03-19 08:13:59 51°20.901 2°52.378 13.3 338 6.8 102700 84
2009-03-19 08:14:04 51°20.918 2°52.381 12.5 339 6.8 102700 84
2009-03-19 08:14:09 51°20.936 2°52.383 14.2 284 6.8 102700 83
2009-03-19 08:14:14 51°20.953 2°52.386 13.5 338 6.8 102700 83
2009-03-19 08:14:19 51°20.971 2°52.388 12 287 6.9 102710 84
2009-03-19 08:14:24 51°20.988 2°52.39 11.9 338 6.9 102710 84
2009-03-19 08:14:29 51°21.005 2°52.393 13.3 287 6.9 102700 83
2009-03-19 08:14:34 51°21.023 2°52.395 13.5 337 6.9 102700 83
2009-03-19 08:14:39 51°21.04 2°52.398 13.4 286 6.9 102700 83
2009-03-19 08:14:44 51°21.058 2°52.401 14 339 6.9 102700 83
2009-03-19 08:14:49 51°21.075 2°52.404 12.4 338 6.9 102710 83
2009-03-19 08:14:54 51°21.092 2°52.407 11.9 337 6.9 102710 83
2009-03-19 08:14:59 51°21.11 2°52.41 13.2 339 6.9 102700 83
2009-03-19 08:15:04 51°21.127 2°52.413 13 338 6.9 102700 83
2009-03-19 08:15:09 51°21.144 2°52.416 11.9 285 6.9 102700 84
2009-03-19 08:15:14 51°21.162 2°52.419 13.8 338 6.9 102700 84
2009-03-19 08:15:19 51°21.179 2°52.422 13.4 286 6.9 102700 84
2009-03-19 08:15:24 51°21.196 2°52.425 12.9 339 6.9 102700 84
2009-03-19 08:15:29 51°21.213 2°52.429 11.3 283 6.9 102710 83
2009-03-19 08:15:34 51°21.231 2°52.432 13 339 6.9 102710 83
2009-03-19 08:15:39 51°21.248 2°52.435 13.5 282 6.9 102710 83
2009-03-19 08:15:44 51°21.265 2°52.439 13.4 337 6.9 102710 83
2009-03-19 08:15:49 51°21.283 2°52.442 13.9 286 6.9 102700 84
2009-03-19 08:15:54 51°21.3 2°52.445 14.4 339 6.9 102700 84
2009-03-19 08:15:59 51°21.317 2°52.448 12 336 6.9 102710 83
2009-03-19 08:16:04 51°21.334 2°52.451 13.5 336 6.9 102710 83
2009-03-19 08:16:09 51°21.351 2°52.455 13.1 286 6.9 102710 83
2009-03-19 08:16:14 51°21.369 2°52.458 12.6 339 6.9 102710 83
2009-03-19 08:16:19 51°21.386 2°52.461 13.2 285 6.9 102700 84
2009-03-19 08:16:24 51°21.403 2°52.464 12 339 6.9 102700 84
2009-03-19 08:16:29 51°21.421 2°52.468 13.3 281 6.9 102700 83
2009-03-19 08:16:34 51°21.438 2°52.471 11.2 338 6.9 102700 83
2009-03-19 08:16:39 51°21.455 2°52.475 14.4 278 6.9 102710 82
2009-03-19 08:16:44 51°21.473 2°52.478 12.7 338 6.9 102710 82
2009-03-19 08:16:49 51°21.49 2°52.482 11.8 282 6.9 102710 82
2009-03-19 08:16:54 51°21.507 2°52.486 13.1 337 6.9 102710 82
2009-03-19 08:16:59 51°21.524 2°52.489 11.3 337 6.9 102710 82
2009-03-19 08:17:04 51°21.542 2°52.493 13 339 6.9 102710 82
2009-03-19 08:17:09 51°21.559 2°52.497 14.2 287 6.9 102710 82
2009-03-19 08:17:14 51°21.576 2°52.5 12.4 337 6.9 102710 82
2009-03-19 08:17:19 51°21.594 2°52.504 12.3 281 6.9 102710 81
2009-03-19 08:17:24 51°21.611 2°52.507 13.8 337 6.9 102710 81
2009-03-19 08:17:29 51°21.628 2°52.511 13.3 287 6.9 102710 83
2009-03-19 08:17:34 51°21.645 2°52.515 12.6 339 6.9 102710 83
2009-03-19 08:17:39 51°21.663 2°52.519 12.4 282 6.9 102710 82
2009-03-19 08:17:44 51°21.68 2°52.522 13.4 337 6.9 102710 82
2009-03-19 08:17:49 51°21.697 2°52.526 13.3 279 6.9 102700 82
2009-03-19 08:17:54 51°21.715 2°52.53 11.6 340 6.9 102700 82
2009-03-19 08:17:59 51°21.732 2°52.533 11 337 6.9 102710 83
2009-03-19 08:18:04 51°21.749 2°52.537 11.6 337 6.9 102710 83
2009-03-19 08:18:09 51°21.767 2°52.541 12 281 6.9 102710 83
2009-03-19 08:18:14 51°21.784 2°52.545 12.8 337 6.9 102710 83
2009-03-19 08:18:19 51°21.801 2°52.549 12.9 282 6.9 102710 83
2009-03-19 08:18:24 51°21.818 2°52.553 12.4 337 6.9 102710 83
2009-03-19 08:18:29 51°21.836 2°52.557 12.8 277 6.9 102710 82
2009-03-19 08:18:34 51°21.853 2°52.56 13.8 337 6.9 102710 82
2009-03-19 08:18:39 51°21.87 2°52.565 13.2 280 6.9 102710 82
2009-03-19 08:18:44 51°21.888 2°52.568 12.1 337 6.9 102710 82
2009-03-19 08:18:49 51°21.905 2°52.574 12.7 279 6.9 102710 83
2009-03-19 08:18:54 51°21.922 2°52.578 12.2 337 6.9 102710 83
2009-03-19 08:18:59 51°21.939 2°52.583 12.5 337 6.9 102710 82
2009-03-19 08:19:04 51°21.956 2°52.588 13.5 337 6.9 102710 82
2009-03-19 08:19:09 51°21.973 2°52.592 12.5 285 6.9 102710 83
2009-03-19 08:19:14 51°21.99 2°52.596 12.8 338 6.9 102710 83
2009-03-19 08:19:19 51°22.007 2°52.6 14.3 281 6.8 102710 81
2009-03-19 08:19:24 51°22.025 2°52.605 12.9 336 6.8 102710 81
2009-03-19 08:19:29 51°22.042 2°52.609 14 282 6.8 102700 81
2009-03-19 08:19:34 51°22.059 2°52.614 13.2 339 6.8 102700 81
2009-03-19 08:19:39 51°22.076 2°52.618 12.5 284 6.8 102710 81
2009-03-19 08:19:44 51°22.093 2°52.623 14.4 337 6.8 102710 81
2009-03-19 08:19:49 51°22.11 2°52.628 13 281 6.8 102710 80
2009-03-19 08:19:54 51°22.128 2°52.633 12.8 338 6.8 102710 80
2009-03-19 08:19:59 51°22.145 2°52.637 14.9 337 6.8 102710 79
2009-03-19 08:20:04 51°22.162 2°52.642 14.6 337 6.8 102710 79
2009-03-19 08:20:09 51°22.179 2°52.646 13.3 279 6.8 102700 79
2009-03-19 08:20:14 51°22.196 2°52.651 13.4 337 6.8 102700 79
2009-03-19 08:20:19 51°22.213 2°52.654 13 278 6.9 102710 79
2009-03-19 08:20:24 51°22.231 2°52.658 13.7 339 6.9 102710 79
2009-03-19 08:20:29 51°22.248 2°52.661 13 281 6.9 102710 79
2009-03-19 08:20:34 51°22.265 2°52.664 13.1 341 6.9 102710 79
2009-03-19 08:20:39 51°22.282 2°52.667 12.1 282 6.9 102710 79
2009-03-19 08:20:44 51°22.3 2°52.671 12.9 338 6.9 102710 79
2009-03-19 08:20:49 51°22.317 2°52.675 11.8 284 6.9 102720 79
2009-03-19 08:20:54 51°22.334 2°52.679 11.8 337 6.9 102720 79
2009-03-19 08:20:59 51°22.351 2°52.683 12 335 6.9 102710 80
2009-03-19 08:21:04 51°22.368 2°52.687 12.9 338 6.9 102710 80
2009-03-19 08:21:09 51°22.386 2°52.691 12.1 283 6.9 102710 80
2009-03-19 08:21:14 51°22.403 2°52.695 12 337 6.9 102710 80
2009-03-19 08:21:19 51°22.42 2°52.7 12.6 285 6.9 102710 80
2009-03-19 08:21:24 51°22.437 2°52.704 13.8 338 6.9 102710 80
2009-03-19 08:21:29 51°22.454 2°52.709 11.9 337 6.9 102710 80
2009-03-19 08:21:34 51°22.472 2°52.713 12.3 338 6.9 102710 80
2009-03-19 08:21:39 51°22.489 2°52.718 13.7 283 6.9 102710 79
2009-03-19 08:21:43 51°22.503 2°52.72 13.6 339 6.9 102710 79
2009-03-19 08:21:49 51°22.523 2°52.725 12.3 277 6.9 102720 80
2009-03-19 08:21:54 51°22.54 2°52.73 13.5 338 6.9 102720 80
2009-03-19 08:21:59 51°22.557 2°52.734 13.4 338 6.9 102710 80
2009-03-19 08:22:04 51°22.575 2°52.738 12.2 337 6.9 102710 80
2009-03-19 08:22:09 51°22.592 2°52.743 13.6 284 6.9 102710 79
2009-03-19 08:22:14 51°22.609 2°52.748 11.6 337 6.9 102710 79
2009-03-19 08:22:19 51°22.626 2°52.753 13.3 281 6.9 102710 80
2009-03-19 08:22:24 51°22.643 2°52.758 13.8 339 6.9 102710 80
2009-03-19 08:22:29 51°22.66 2°52.762 13 281 6.9 102720 81
2009-03-19 08:22:34 51°22.677 2°52.767 13 338 6.9 102720 81
2009-03-19 08:22:39 51°22.695 2°52.771 13.2 278 6.9 102720 80
2009-03-19 08:22:44 51°22.712 2°52.775 11.7 336 6.9 102720 80
2009-03-19 08:22:49 51°22.729 2°52.78 12.9 281 6.9 102720 80
2009-03-19 08:22:54 51°22.746 2°52.784 12.2 338 6.9 102720 80
2009-03-19 08:22:59 51°22.763 2°52.789 11.7 337 6.9 102710 80
2009-03-19 08:23:04 51°22.78 2°52.794 11.8 339 6.9 102710 80
2009-03-19 08:23:09 51°22.797 2°52.799 11.1 279 6.9 102720 81
2009-03-19 08:23:14 51°22.815 2°52.805 13.5 337 6.9 102720 81
2009-03-19 08:23:19 51°22.832 2°52.81 12.3 280 6.9 102710 80
2009-03-19 08:23:24 51°22.849 2°52.815 12.7 337 6.9 102710 80
2009-03-19 08:23:29 51°22.866 2°52.821 13.3 279 6.9 102710 80
2009-03-19 08:23:34 51°22.883 2°52.826 11.9 338 6.9 102710 80
2009-03-19 08:23:39 51°22.9 2°52.832 12.3 287 6.9 102720 80
2009-03-19 08:23:44 51°22.917 2°52.838 11.8 338 6.9 102720 80
2009-03-19 08:23:49 51°22.935 2°52.843 11.7 282 6.9 102710 80
2009-03-19 08:23:54 51°22.952 2°52.848 14.1 337 6.9 102710 80
2009-03-19 08:23:59 51°22.969 2°52.853 12.4 336 6.9 102720 80
2009-03-19 08:24:04 51°22.986 2°52.857 13.4 336 6.9 102720 80
2009-03-19 08:24:09 51°23.004 2°52.862 13.8 279 6.9 102710 80
2009-03-19 08:24:14 51°23.021 2°52.866 14.5 339 6.9 102710 80
2009-03-19 08:24:19 51°23.038 2°52.87 13.4 282 6.9 102710 79
2009-03-19 08:24:24 51°23.055 2°52.875 11.3 338 6.9 102710 79
2009-03-19 08:24:29 51°23.073 2°52.879 12.5 282 6.9 102710 79
2009-03-19 08:24:34 51°23.09 2°52.883 11.8 337 6.9 102710 79
2009-03-19 08:24:39 51°23.107 2°52.888 11.1 283 6.9 102710 79
2009-03-19 08:24:44 51°23.124 2°52.893 14.1 337 6.9 102710 79
2009-03-19 08:24:49 51°23.142 2°52.896 12.2 287 6.9 102710 79
2009-03-19 08:24:54 51°23.158 2°52.903 13.1 335 6.9 102710 79
2009-03-19 08:24:59 51°23.176 2°52.906 13.2 335 6.9 102710 79
2009-03-19 08:25:04 51°23.193 2°52.913 12.5 336 6.9 102710 79
2009-03-19 08:25:09 51°23.21 2°52.916 12.2 283 6.9 102710 79
2009-03-19 08:25:14 51°23.227 2°52.923 12.6 337 6.9 102710 79
2009-03-19 08:25:19 51°23.244 2°52.927 13.4 282 6.9 102710 80
2009-03-19 08:25:24 51°23.261 2°52.932 13 336 6.9 102710 80
2009-03-19 08:25:29 51°23.279 2°52.937 13.6 282 6.9 102710 78
2009-03-19 08:25:34 51°23.296 2°52.943 12.2 337 6.9 102710 78
2009-03-19 08:25:39 51°23.313 2°52.947 12.3 279 6.9 102720 79
2009-03-19 08:25:45 51°23.334 2°52.955 13.3 338 6.9 102720 79
2009-03-19 08:25:49 51°23.347 2°52.959 14 287 6.9 102710 79
2009-03-19 08:25:54 51°23.364 2°52.965 12.3 337 6.9 102710 79
2009-03-19 08:25:59 51°23.382 2°52.97 14 338 6.9 102710 79
2009-03-19 08:26:04 51°23.399 2°52.976 12 337 6.9 102710 79
2009-03-19 08:26:09 51°23.416 2°52.982 13.3 281 6.9 102710 79
2009-03-19 08:26:14 51°23.433 2°52.987 13.8 338 6.9 102710 79
2009-03-19 08:26:19 51°23.451 2°52.993 13.8 283 6.9 102700 78
2009-03-19 08:26:24 51°23.468 2°52.998 13.8 338 6.9 102700 78
2009-03-19 08:26:29 51°23.485 2°53.004 11.3 285 6.9 102710 78
2009-03-19 08:26:34 51°23.502 2°53.01 13.2 339 6.9 102710 78
2009-03-19 08:26:39 51°23.519 2°53.016 14.4 284 6.9 102700 79
2009-03-19 08:26:44 51°23.537 2°53.021 13.5 337 6.9 102700 79
2009-03-19 08:26:49 51°23.554 2°53.027 12.2 277 6.9 102710 78
2009-03-19 08:26:54 51°23.571 2°53.032 12.5 338 6.9 102710 78
2009-03-19 08:26:59 51°23.588 2°53.038 12.3 338 6.9 102710 79
2009-03-19 08:27:04 51°23.606 2°53.043 13.6 338 6.9 102710 79
2009-03-19 08:27:09 51°23.623 2°53.049 14 285 6.9 102710 79
2009-03-19 08:27:14 51°23.64 2°53.054 13.5 338 6.9 102710 79
2009-03-19 08:27:19 51°23.657 2°53.06 13.5 282 6.9 102710 79
2009-03-19 08:27:24 51°23.675 2°53.065 13.8 338 6.9 102710 79
2009-03-19 08:27:29 51°23.692 2°53.069 13.2 280 6.9 102710 79
2009-03-19 08:27:34 51°23.709 2°53.074 12.2 339 6.9 102710 79
2009-03-19 08:27:39 51°23.727 2°53.079 11.5 282 6.9 102700 79
2009-03-19 08:27:44 51°23.744 2°53.084 13 339 6.9 102700 79
2009-03-19 08:27:49 51°23.761 2°53.089 11.9 281 6.9 102710 78
2009-03-19 08:27:54 51°23.779 2°53.094 12.2 338 6.9 102710 78
2009-03-19 08:27:59 51°23.796 2°53.1 12.6 335 6.9 102710 79
2009-03-19 08:28:04 51°23.813 2°53.105 13.4 339 6.9 102710 79
2009-03-19 08:28:10 51°23.834 2°53.112 13.4 283 6.9 102710 79
2009-03-19 08:28:14 51°23.847 2°53.116 13.6 337 6.9 102710 79
2009-03-19 08:28:19 51°23.865 2°53.121 14.4 285 6.9 102710 79
2009-03-19 08:28:23 51°23.879 2°53.125 12.2 337 6.9 102710 79
2009-03-19 08:28:30 51°23.903 2°53.133 13.9 283 6.9 102710 79
2009-03-19 08:28:34 51°23.916 2°53.137 11.9 337 6.9 102710 79
2009-03-19 08:28:39 51°23.934 2°53.143 13.6 278 6.9 102710 80
2009-03-19 08:28:44 51°23.951 2°53.149 13 337 6.9 102710 80
2009-03-19 08:28:49 51°23.968 2°53.154 13.5 284 6.9 102710 80
2009-03-19 08:28:54 51°23.985 2°53.159 13.3 338 6.9 102710 80
2009-03-19 08:28:59 51°24.003 2°53.164 12.1 338 6.9 102710 80
2009-03-19 08:29:04 51°24.02 2°53.17 12.1 338 6.9 102710 80
2009-03-19 08:29:09 51°24.037 2°53.175 13.6 277 6.9 102720 80
2009-03-19 08:29:14 51°24.054 2°53.18 12.1 338 6.9 102720 80
2009-03-19 08:29:19 51°24.072 2°53.185 13.5 284 6.9 102710 80
2009-03-19 08:29:24 51°24.089 2°53.191 13.9 338 6.9 102710 80
2009-03-19 08:29:29 51°24.106 2°53.196 13.9 282 6.9 102720 79
2009-03-19 08:29:34 51°24.124 2°53.201 11.7 339 6.9 102720 79
2009-03-19 08:29:39 51°24.141 2°53.207 13.6 280 6.9 102710 79
2009-03-19 08:29:44 51°24.158 2°53.212 12.8 338 6.9 102710 79
2009-03-19 08:29:49 51°24.175 2°53.218 13.1 279 6.9 102710 80
2009-03-19 08:29:54 51°24.193 2°53.223 13.1 338 6.9 102710 80
2009-03-19 08:29:59 51°24.21 2°53.229 11.2 337 6.9 102710 80
2009-03-19 08:30:04 51°24.227 2°53.234 13.2 338 6.9 102710 80
2009-03-19 08:30:09 51°24.244 2°53.24 12.6 282 6.9 102710 80
2009-03-19 08:30:14 51°24.262 2°53.245 11.8 338 6.9 102710 80
2009-03-19 08:30:19 51°24.279 2°53.25 12.3 283 6.9 102700 80
2009-03-19 08:30:24 51°24.296 2°53.255 13.2 336 6.9 102700 80
2009-03-19 08:30:29 51°24.313 2°53.261 11.3 282 6.9 102710 80
2009-03-19 08:30:34 51°24.33 2°53.265 13.5 338 6.9 102710 80
2009-03-19 08:30:39 51°24.348 2°53.271 15.1 284 6.9 102720 80
2009-03-19 08:30:44 51°24.365 2°53.274 12.2 341 6.9 102720 80
2009-03-19 08:30:49 51°24.382 2°53.279 13.4 286 6.9 102700 80
2009-03-19 08:30:54 51°24.399 2°53.283 13 339 6.9 102700 80
2009-03-19 08:30:59 51°24.416 2°53.287 11.6 338 6.9 102700 80
2009-03-19 08:31:04 51°24.434 2°53.291 12.5 340 6.9 102700 80
2009-03-19 08:31:09 51°24.451 2°53.296 11.5 286 6.9 102710 80
2009-03-19 08:31:14 51°24.468 2°53.3 12.8 339 6.9 102710 80
2009-03-19 08:31:19 51°24.485 2°53.304 11.5 280 6.9 102710 80
2009-03-19 08:31:23 51°24.499 2°53.308 11.8 338 6.9 102710 80
2009-03-19 08:31:29 51°24.52 2°53.313 12.7 282 6.9 102710 80
2009-03-19 08:31:34 51°24.537 2°53.317 13.5 339 6.9 102710 80
2009-03-19 08:31:39 51°24.554 2°53.321 14.2 278 6.9 102710 81
2009-03-19 08:31:44 51°24.571 2°53.326 12.6 339 6.9 102710 81
2009-03-19 08:31:49 51°24.588 2°53.329 12.3 280 6.9 102710 81
2009-03-19 08:31:54 51°24.606 2°53.334 11.9 341 6.9 102710 81
2009-03-19 08:31:59 51°24.623 2°53.339 13.1 339 6.9 102710 80
2009-03-19 08:32:04 51°24.64 2°53.343 12.9 339 6.9 102710 80
2009-03-19 08:32:09 51°24.657 2°53.348 13.3 283 6.9 102710 80
2009-03-19 08:32:14 51°24.674 2°53.352 13 339 6.9 102710 80
2009-03-19 08:32:19 51°24.691 2°53.357 12.1 282 6.9 102700 80
2009-03-19 08:32:24 51°24.708 2°53.362 12.9 339 6.9 102700 80
2009-03-19 08:32:29 51°24.726 2°53.367 11.7 284 6.9 102710 80
2009-03-19 08:32:34 51°24.743 2°53.372 13.1 337 6.9 102710 80
2009-03-19 08:32:39 51°24.76 2°53.377 14 284 6.9 102720 81
2009-03-19 08:32:44 51°24.777 2°53.381 13.7 338 6.9 102720 81
2009-03-19 08:32:49 51°24.794 2°53.386 14.9 279 6.9 102710 80
2009-03-19 08:32:54 51°24.811 2°53.391 14.5 339 6.9 102710 80
2009-03-19 08:32:59 51°24.828 2°53.396 14.3 340 6.9 102710 81
2009-03-19 08:33:04 51°24.846 2°53.4 14.6 339 6.9 102710 81
2009-03-19 08:33:09 51°24.863 2°53.405 12.3 281 6.9 102710 81
2009-03-19 08:33:14 51°24.88 2°53.41 14.3 342 6.9 102710 81
2009-03-19 08:33:19 51°24.897 2°53.414 12.5 283 6.9 102700 81
2009-03-19 08:33:24 51°24.914 2°53.419 12.2 339 6.9 102700 81
2009-03-19 08:33:29 51°24.932 2°53.424 12.3 277 6.9 102720 81
2009-03-19 08:33:34 51°24.949 2°53.429 12.1 339 6.9 102720 81
2009-03-19 08:33:39 51°24.966 2°53.435 12.3 287 6.9 102720 81
2009-03-19 08:33:44 51°24.983 2°53.441 12.7 338 6.9 102720 81
2009-03-19 08:33:49 51°25 2°53.447 11.9 277 6.9 102710 81
2009-03-19 08:33:54 51°25.017 2°53.453 13.7 340 6.9 102710 81
2009-03-19 08:33:59 51°25.034 2°53.459 14.2 339 6.9 102720 81
2009-03-19 08:34:04 51°25.051 2°53.465 13 339 6.9 102720 81
2009-03-19 08:34:09 51°25.068 2°53.471 13.9 281 6.9 102720 81
2009-03-19 08:34:14 51°25.086 2°53.476 14.2 339 6.9 102720 81
2009-03-19 08:34:19 51°25.103 2°53.483 12.3 282 6.9 102720 80
2009-03-19 08:34:25 51°25.123 2°53.489 13.4 339 6.9 102720 80
2009-03-19 08:34:29 51°25.137 2°53.493 13.8 282 6.9 102720 82
2009-03-19 08:34:34 51°25.154 2°53.499 14.3 341 6.9 102720 82
2009-03-19 08:34:39 51°25.171 2°53.504 12.5 283 6.9 102720 81
2009-03-19 08:34:45 51°25.192 2°53.51 12.2 340 6.9 102720 81
2009-03-19 08:34:49 51°25.206 2°53.513 12.9 279 6.8 102720 81
2009-03-19 08:34:54 51°25.223 2°53.518 12.6 339 6.8 102720 81
2009-03-19 08:34:59 51°25.24 2°53.523 14.3 339 6.9 102720 81
2009-03-19 08:35:04 51°25.257 2°53.528 13.5 340 6.9 102720 81
2009-03-19 08:35:09 51°25.274 2°53.532 12.5 278 6.8 102720 81
2009-03-19 08:35:14 51°25.292 2°53.538 14 339 6.8 102720 81
2009-03-19 08:35:19 51°25.309 2°53.544 14.2 279 6.8 102710 82
2009-03-19 08:35:24 51°25.326 2°53.549 12.3 340 6.8 102710 82
2009-03-19 08:35:29 51°25.343 2°53.555 12 278 6.8 102710 82
2009-03-19 08:35:34 51°25.36 2°53.56 13.9 340 6.8 102710 82
2009-03-19 08:35:39 51°25.378 2°53.565 13.5 285 6.8 102720 81
2009-03-19 08:35:44 51°25.395 2°53.57 12.8 340 6.8 102720 81
2009-03-19 08:35:49 51°25.412 2°53.575 11.7 284 6.8 102720 81
2009-03-19 08:35:54 51°25.429 2°53.58 11.8 338 6.8 102720 81
2009-03-19 08:35:59 51°25.446 2°53.586 12 341 6.8 102720 82
2009-03-19 08:36:04 51°25.463 2°53.592 14.6 338 6.8 102720 82
2009-03-19 08:36:09 51°25.48 2°53.598 14.4 282 6.8 102720 82
2009-03-19 08:36:14 51°25.497 2°53.603 14.6 341 6.8 102720 82
2009-03-19 08:36:19 51°25.515 2°53.608 12 278 6.8 102720 81
2009-03-19 08:36:24 51°25.532 2°53.613 12 339 6.8 102720 81
2009-03-19 08:36:29 51°25.549 2°53.618 13.7 286 6.9 102720 81
2009-03-19 08:36:34 51°25.566 2°53.622 13.7 339 6.9 102720 81
2009-03-19 08:36:39 51°25.583 2°53.627 13 286 6.8 102720 81
2009-03-19 08:36:44 51°25.6 2°53.632 14.2 340 6.8 102720 81
2009-03-19 08:36:49 51°25.618 2°53.637 14.2 279 6.8 102730 82
2009-03-19 08:36:54 51°25.635 2°53.641 11.9 339 6.8 102730 82
2009-03-19 08:36:59 51°25.652 2°53.646 13.2 339 6.8 102720 82
2009-03-19 08:37:04 51°25.669 2°53.65 13.3 338 6.8 102720 82
2009-03-19 08:37:09 51°25.686 2°53.655 12.1 282 6.8 102730 82
2009-03-19 08:37:14 51°25.704 2°53.659 13.8 339 6.8 102730 82
2009-03-19 08:37:19 51°25.721 2°53.665 13.3 283 6.8 102730 82
2009-03-19 08:37:24 51°25.738 2°53.67 13.7 339 6.8 102730 82
2009-03-19 08:37:30 51°25.758 2°53.677 11.5 279 6.8 102720 82
2009-03-19 08:37:34 51°25.772 2°53.683 11.9 338 6.8 102720 82
2009-03-19 08:37:39 51°25.789 2°53.687 12.2 286 6.8 102730 82
2009-03-19 08:37:44 51°25.806 2°53.694 13.8 340 6.8 102730 82
2009-03-19 08:37:49 51°25.823 2°53.698 14.1 282 6.8 102720 81
2009-03-19 08:37:54 51°25.84 2°53.703 13.3 340 6.8 102720 81
2009-03-19 08:37:59 51°25.857 2°53.708 12.1 339 6.8 102720 82
2009-03-19 08:38:04 51°25.874 2°53.713 13.7 340 6.8 102720 82
2009-03-19 08:38:09 51°25.892 2°53.718 12.4 283 6.8 102720 82
2009-03-19 08:38:14 51°25.909 2°53.723 12.1 340 6.8 102720 82
2009-03-19 08:38:19 51°25.926 2°53.727 12.6 282 6.8 102730 82
2009-03-19 08:38:24 51°25.943 2°53.732 11.9 340 6.8 102730 82
2009-03-19 08:38:29 51°25.96 2°53.737 12.8 282 6.8 102720 82
2009-03-19 08:38:34 51°25.977 2°53.742 12.9 340 6.8 102720 82
2009-03-19 08:38:39 51°25.994 2°53.747 13.8 278 6.8 102720 82
2009-03-19 08:38:44 51°26.011 2°53.752 11.7 340 6.8 102720 82
2009-03-19 08:38:49 51°26.028 2°53.758 12.7 286 6.8 102730 82
2009-03-19 08:38:54 51°26.046 2°53.762 12.9 339 6.8 102730 82
2009-03-19 08:38:59 51°26.063 2°53.768 12.7 340 6.8 102730 82
2009-03-19 08:39:04 51°26.08 2°53.774 10.7 339 6.8 102730 82
2009-03-19 08:39:09 51°26.097 2°53.78 11.1 278 6.8 102730 82
2009-03-19 08:39:14 51°26.114 2°53.786 13.5 339 6.8 102730 82
2009-03-19 08:39:19 51°26.131 2°53.792 13.8 283 6.8 102720 82
2009-03-19 08:39:24 51°26.148 2°53.798 13.9 339 6.8 102720 82
2009-03-19 08:39:29 51°26.165 2°53.804 13.8 281 6.8 102730 83
2009-03-19 08:39:34 51°26.182 2°53.81 12.6 339 6.8 102730 83
2009-03-19 08:39:39 51°26.2 2°53.816 12.8 278 6.8 102730 82
2009-03-19 08:39:44 51°26.217 2°53.823 13 340 6.8 102730 82
2009-03-19 08:39:50 51°26.237 2°53.83 11.4 283 6.8 102730 83
2009-03-19 08:39:54 51°26.251 2°53.835 11.9 339 6.8 102730 83
2009-03-19 08:39:59 51°26.268 2°53.841 11.8 339 6.8 102730 82
2009-03-19 08:40:04 51°26.285 2°53.847 14 339 6.8 102730 82
2009-03-19 08:40:09 51°26.302 2°53.853 12.2 287 6.8 102730 83
2009-03-19 08:40:14 51°26.319 2°53.859 11.8 340 6.8 102730 83
2009-03-19 08:40:19 51°26.336 2°53.865 12.9 279 6.8 102730 82
2009-03-19 08:40:24 51°26.353 2°53.872 13.1 338 6.8 102730 82
2009-03-19 08:40:29 51°26.37 2°53.877 12.6 287 6.8 102720 83
2009-03-19 08:40:34 51°26.387 2°53.883 10.6 341 6.8 102720 83
2009-03-19 08:40:39 51°26.404 2°53.889 12.6 281 6.8 102730 82
2009-03-19 08:40:44 51°26.421 2°53.894 12.8 340 6.8 102730 82
2009-03-19 08:40:49 51°26.439 2°53.899 12.3 279 6.8 102730 82
2009-03-19 08:40:54 51°26.456 2°53.904 13.2 339 6.8 102730 82
2009-03-19 08:40:59 51°26.473 2°53.908 13.6 340 6.8 102730 82
2009-03-19 08:41:04 51°26.49 2°53.913 13.3 340 6.8 102730 82
2009-03-19 08:41:09 51°26.507 2°53.918 10.9 279 6.8 102730 82
2009-03-19 08:41:14 51°26.524 2°53.922 12 340 6.8 102730 82
2009-03-19 08:41:19 51°26.541 2°53.927 13.7 280 6.8 102730 82
2009-03-19 08:41:24 51°26.559 2°53.931 13.2 341 6.8 102730 82
2009-03-19 08:41:29 51°26.576 2°53.936 11.1 278 6.8 102730 83
2009-03-19 08:41:34 51°26.593 2°53.94 12.5 339 6.8 102730 83
2009-03-19 08:41:39 51°26.61 2°53.945 12 279 6.8 102730 83
2009-03-19 08:41:44 51°26.627 2°53.949 12.7 340 6.8 102730 83
2009-03-19 08:41:49 51°26.644 2°53.955 12.2 286 6.7 102730 82
2009-03-19 08:41:54 51°26.661 2°53.96 12.2 338 6.7 102730 82
2009-03-19 08:41:59 51°26.679 2°53.966 11.5 339 6.7 102720 82
2009-03-19 08:42:04 51°26.696 2°53.971 11.6 338 6.7 102720 82
2009-03-19 08:42:09 51°26.713 2°53.977 13 282 6.8 102740 83
2009-03-19 08:42:14 51°26.73 2°53.983 10.7 340 6.8 102740 83
2009-03-19 08:42:19 51°26.747 2°53.989 13.4 282 6.8 102720 83
2009-03-19 08:42:24 51°26.764 2°53.995 12.1 341 6.8 102720 83
2009-03-19 08:42:29 51°26.781 2°54.001 11.9 278 6.8 102730 83
2009-03-19 08:42:34 51°26.798 2°54.006 12.6 340 6.8 102730 83
2009-03-19 08:42:39 51°26.815 2°54.011 12.7 287 6.8 102730 83
2009-03-19 08:42:43 51°26.829 2°54.014 12.1 339 6.8 102730 83
2009-03-19 08:42:49 51°26.85 2°54.02 13.5 285 6.8 102720 82
2009-03-19 08:42:54 51°26.867 2°54.024 14.1 341 6.8 102720 82
2009-03-19 08:42:59 51°26.884 2°54.029 12.3 341 6.7 102730 82
2009-03-19 08:43:04 51°26.901 2°54.033 13.3 340 6.7 102730 82
2009-03-19 08:43:09 51°26.919 2°54.037 11.6 284 6.7 102730 82
2009-03-19 08:43:14 51°26.936 2°54.042 11.7 341 6.7 102730 82
2009-03-19 08:43:19 51°26.953 2°54.047 11.1 286 6.7 102720 82
2009-03-19 08:43:24 51°26.97 2°54.051 11.4 340 6.7 102720 82
2009-03-19 08:43:29 51°26.987 2°54.056 14.2 280 6.7 102730 82
2009-03-19 08:43:34 51°27.004 2°54.061 12.3 340 6.7 102730 82
2009-03-19 08:43:39 51°27.022 2°54.066 11.5 282 6.7 102730 82
2009-03-19 08:43:45 51°27.042 2°54.072 11.7 342 6.7 102730 82
2009-03-19 08:43:49 51°27.056 2°54.076 12.1 281 6.7 102730 82
2009-03-19 08:43:54 51°27.073 2°54.08 11.6 340 6.7 102730 82
2009-03-19 08:43:59 51°27.09 2°54.085 13.8 340 6.7 102720 82
2009-03-19 08:44:05 51°27.111 2°54.091 11.1 340 6.7 102720 82
2009-03-19 08:44:09 51°27.125 2°54.095 12.9 277 6.7 102720 82
2009-03-19 08:44:14 51°27.142 2°54.101 11.5 339 6.7 102720 82
2009-03-19 08:44:19 51°27.159 2°54.106 13.1 278 6.7 102730 82
2009-03-19 08:44:24 51°27.176 2°54.112 12.3 340 6.7 102730 82
2009-03-19 08:44:29 51°27.193 2°54.117 11.8 279 6.7 102720 83
2009-03-19 08:44:34 51°27.21 2°54.123 11.6 339 6.7 102720 83
2009-03-19 08:44:39 51°27.227 2°54.128 13.5 280 6.7 102720 82
2009-03-19 08:44:44 51°27.244 2°54.134 12.1 339 6.7 102720 82
2009-03-19 08:44:49 51°27.261 2°54.14 11.7 278 6.7 102720 83
2009-03-19 08:44:54 51°27.279 2°54.145 12.9 338 6.7 102720 83
2009-03-19 08:44:59 51°27.296 2°54.151 12.4 338 6.7 102730 82
2009-03-19 08:45:04 51°27.313 2°54.157 13.2 338 6.7 102730 82
2009-03-19 08:45:09 51°27.33 2°54.162 12.8 281 6.7 102720 83
2009-03-19 08:45:14 51°27.347 2°54.168 11.8 340 6.7 102720 83
2009-03-19 08:45:19 51°27.364 2°54.173 13.2 283 6.7 102730 83
2009-03-19 08:45:24 51°27.381 2°54.179 12 340 6.7 102730 83
2009-03-19 08:45:29 51°27.399 2°54.184 11.9 280 6.7 102730 83
2009-03-19 08:45:34 51°27.416 2°54.189 12.6 340 6.7 102730 83
2009-03-19 08:45:39 51°27.433 2°54.194 11.5 281 6.7 102730 83
2009-03-19 08:45:45 51°27.454 2°54.2 11.5 339 6.7 102730 83
2009-03-19 08:45:49 51°27.468 2°54.204 13.1 282 6.7 102720 82
2009-03-19 08:45:54 51°27.485 2°54.21 11.6 339 6.7 102720 82
2009-03-19 08:45:59 51°27.502 2°54.215 11.6 340 6.7 102730 83
2009-03-19 08:46:05 51°27.523 2°54.221 13 340 6.7 102730 83
2009-03-19 08:46:09 51°27.537 2°54.225 11.4 282 6.7 102730 82
2009-03-19 08:46:14 51°27.554 2°54.231 11.6 342 6.7 102730 82
2009-03-19 08:46:19 51°27.571 2°54.236 12.5 284 6.7 102730 83
2009-03-19 08:46:24 51°27.588 2°54.24 13.3 340 6.7 102730 83
2009-03-19 08:46:29 51°27.606 2°54.245 12 282 6.8 102730 82
2009-03-19 08:46:34 51°27.623 2°54.249 11 338 6.8 102730 82
2009-03-19 08:46:39 51°27.641 2°54.254 11.5 284 6.7 102730 83
2009-03-19 08:46:44 51°27.658 2°54.259 12.3 340 6.7 102730 83
2009-03-19 08:46:50 51°27.679 2°54.265 13.4 282 6.7 102730 83
2009-03-19 08:46:54 51°27.693 2°54.269 11.6 340 6.7 102730 83
2009-03-19 08:46:59 51°27.71 2°54.274 11.1 339 6.7 102730 83
2009-03-19 08:47:04 51°27.728 2°54.279 12.9 339 6.7 102730 83
2009-03-19 08:47:09 51°27.745 2°54.284 13.2 280 6.8 102730 83
2009-03-19 08:47:14 51°27.762 2°54.288 12.1 340 6.8 102730 83
2009-03-19 08:47:19 51°27.78 2°54.293 12.3 281 6.8 102740 82
2009-03-19 08:47:24 51°27.797 2°54.298 11.7 340 6.8 102740 82